Погода в Кучкаке

Узбекистан     38°53′22″N   65°44′20″E
темп.,
°C
ветер,
м/с
пор.,
м/с
влажн.,
%
обл.,
%
осадки,
мм/ч
давл.,
гПа
погр.,
м
27 февраля, сб
сб2723:00−3ссз22251 0.0 103045
02:00−3ссв112596 0.0 102961
05:00−2с112498 0.0 102977
08:00−1ююв1223100 0.0 1029108
11:00+3ююз242184 0.0 1030679
14:00+6юз44220 0.0 10281113
17:00+7юз23200 0.0 10271090
20:00+3зсз12280 0.0 102822
28 февраля, вс
вс2823:00+2ссв23250 0.0 102723
02:00+2всв33350 0.0 102528
05:00+2св34400 0.0 102343
08:00+2св34420 0.0 102362
11:00+10св45260 0.0 1021410
14:00+14ссв33190 0.0 1018829
17:00+14ссв33205 0.0 1017867
20:00+10ссв33320 0.0 101824
1 марта, пн
пн123:00+8всв233614 0.0 101824
02:00+8вюв3435100 0.0 101825
05:00+7вюв4537100 0.0 101846
08:00+8вюв443110 0.0 101850
11:00+16ююз47145 0.0 1018533
14:00+21юз79120 0.0 10172038
17:00+20юз89140 0.0 10161572
20:00+15ю452233 0.0 101861
2 марта, вт
вт223:00+12зсз232767 0.0 101923
02:00+12св3329100 0.0 102032
05:00+11св2331100 0.0 101923
08:00+11ссв2230100 0.0 102022
11:00+16зсз1121100 0.0 1020255
14:00+18зсз4419100 0.0 1020751
17:00+17зсз3423100 0.0 1019953
20:00+13с3545100 0.0 1020132
3 марта, ср
ср323:00+12ссв2245100 0.0 102030
02:00+10с115099 0.0 102022
05:00+9с234298 0.0 102023
08:00+10сз3439100 0.0 1020113
11:00+13сз1129100 0.0 1020437
14:00+15зсз132890 0.0 10181255
17:00+16сз122995 0.0 10171643
20:00+12ссв453697 0.0 1016114